FENGYUN 1C DEB, 41827

Orbit data source: Space-Track

FENGYUN 1C DEB, 41827 is space debris in SSO originally from a launch on Mon, 10 May 1999 UTC launched from the Taiyaun Space Center, China (TSC). Fengyun 1C debris stems from the Chinese weather satellite Fengyun-1C, which was intentionally destroyed by a Chinese anti-satellite missile in 2007. This event dramatically increased the amount of space debris, with thousands of trackable fragments posing hazards to satellites and human spaceflight. The Fengyun 1C debris cloud has become a focal point in discussions about space sustainability and the need for international regulations to prevent the creation of new debris.

Loading next visibility...
Identifier
41827, 1999-025EYE
Orbit
SSO
Country
Flag of CNCN / PRC
Related business
Manufacturer
Unknown
Mission
Spacecraft
Bus & Motor
Unknown
Mass
Unknown
Launch date (UTC)
1999-05-10 (27 years ago)
Launch vehicle
Unknown
Launch site
Taiyaun Space Center, China (TSC)
Object type
Payload
Rocket body
Debris
Shape & HBR
Unknown shape, 0.1 m
Radar Cross Section
Small (<0.1 m²)

Expand to show TLE details & history
Last TLE update: 8 hours ago

TLE from 8 hours ago
0 FENGYUN 1C DEB
1 41827U 99025EYE 26145.17985740  .00002877  00000-0  11913-2 0  9997
2 41827  98.7289 218.8651 0058799 101.6971 259.0814 14.26440092496607
Epoch: 2026-05-25T04:18Z
TLE epoch observation values (Epoch: 2026-05-25T04:18:59.679Z)
Latitude
-0.00009°
Longitude
-88.6549°
Altitude
814.817 km
Speed
7.442 km/s
True Right ascension
14h 35m 27s
True Declination
0° 00' 00"
Sunlit
Object was in full shadow at epoch
Visualization orbit readout
Latitude
Unknown
Longitude
Unknown
Altitude
Unknown
Speed
Unknown
Apparent Right ascension
Unknown
Apparent Declination
Unknown
Sunlit
N/A
Visualization observer readout
Local Sidereal Time
21:42:29
Azimuth
Unknown
Elevation
Unknown
Doppler factor
Unknown
Orbital elements
Apogee altitude
843.017 km
Perigee altitude
758.594 km
Semi-major axis
7,178.943 km
Eccentricity
0.00588
Inclination
98.7289°
RAAN
218.8651°
Arg. of periapsis
101.6971°
True anomaly
258.42074°
Mean anomaly
259.0814°
Eccentric anomaly
258.75098°
Mean motion
3.56823 °/min
Orbital period
100.89 mins
BSTAR
0.0011913
Loading maneuver chart data...
Computing Atmospheric mass density...
Loading historical data...
Loading historical data...
Loading historical data...
Loading historical data...
Loading historical data...
Loading historical data...
Loading historical data...

Documentation

Showing up to 5 results
|